| time (UTC) | temp F | wind direction | speed MPH | gust MPH | rain 1hr in | rain 24hr in | rain mn in | humidity % | barometer mb |
| 20260509203616 | 60 | 314 | 3.0 | 7.0 | 0.00 | 0.00 | 0.00 | 33 | 1012.0 |
| 20260509203115 | 60 | 128 | 2.0 | 9.0 | 0.00 | 0.00 | 0.00 | 38 | 1011.7 |
| 20260509202609 | 59 | 317 | 5.0 | 10.0 | 0.00 | 0.00 | 0.00 | 34 | 1011.8 |
| 20260509202104 | 59 | 182 | 1.0 | 10.0 | 0.00 | 0.00 | 0.00 | 34 | 1012.0 |
| 20260509201559 | 59 | 277 | 8.0 | 14.0 | 0.00 | 0.00 | 0.00 | 33 | 1011.7 |
| 20260509201057 | 59 | 209 | 4.0 | 10.0 | 0.00 | 0.00 | 0.00 | 34 | 1011.7 |
| 20260509200557 | 60 | 193 | 1.0 | 7.0 | 0.00 | 0.00 | 0.00 | 35 | 1011.7 |
| 20260509200053 | 59 | 150 | 6.0 | 17.0 | 0.00 | 0.00 | 0.00 | 34 | 1011.7 |
| 20260509195549 | 59 | 236 | 9.0 | 15.0 | 0.00 | 0.00 | 0.00 | 32 | 1011.6 |
| 20260509195044 | 58 | 230 | 3.0 | 9.0 | 0.00 | 0.00 | 0.00 | 34 | 1011.5 |
| 20260509194538 | 59 | 248 | 6.0 | 13.0 | 0.00 | 0.00 | 0.00 | 33 | 1011.6 |
| 20260509194036 | 60 | 213 | 7.0 | 10.0 | 0.00 | 0.00 | 0.00 | 34 | 1011.7 |
| 20260509193537 | 60 | 279 | 5.0 | 10.0 | 0.00 | 0.00 | 0.00 | 35 | 1011.6 |
| 20260509193033 | 59 | 232 | 0.0 | 3.0 | 0.00 | 0.00 | 0.00 | 36 | 1011.6 |
| 20260509192530 | 59 | 224 | 8.0 | 13.0 | 0.00 | 0.00 | 0.00 | 33 | 1011.4 |
| 20260509192025 | 59 | 289 | 3.0 | 6.0 | 0.00 | 0.00 | 0.00 | 35 | 1011.5 |
| 20260509191520 | 58 | 13 | 5.0 | 10.0 | 0.00 | 0.00 | 0.00 | 36 | 1011.2 |
| 20260509191016 | 58 | 207 | 11.0 | 15.0 | 0.00 | 0.00 | 0.00 | 36 | 1011.2 |
| 20260509190513 | 59 | 106 | 1.0 | 7.0 | 0.00 | 0.00 | 0.00 | 38 | 1011.1 |
| 20260509190011 | 57 | 155 | 4.0 | 7.0 | 0.00 | 0.00 | 0.00 | 38 | 1011.2 |
| 20260509185508 | 58 | 247 | 5.0 | 10.0 | 0.00 | 0.00 | 0.00 | 39 | 1011.0 |
| 20260509185004 | 57 | 199 | 5.0 | 7.0 | 0.00 | 0.00 | 0.00 | 38 | 1011.2 |
| 20260509184503 | 57 | 224 | 5.0 | 8.0 | 0.00 | 0.00 | 0.00 | 38 | 1011.3 |
| 20260509183958 | 58 | 239 | 6.0 | 9.0 | 0.00 | 0.00 | 0.00 | 38 | 1011.1 |
| 20260509183453 | 57 | 164 | 2.0 | 10.0 | 0.00 | 0.00 | 0.00 | 40 | 1011.1 |
| 20260509182949 | 57 | 246 | 5.0 | 13.0 | 0.00 | 0.00 | 0.00 | 41 | 1010.6 |
| 20260509182446 | 58 | 213 | 12.0 | 16.0 | 0.00 | 0.00 | 0.00 | 40 | 1010.8 |
| 20260509181944 | 57 | 241 | 5.0 | 18.0 | 0.00 | 0.00 | 0.00 | 38 | 1011.0 |
| 20260509181441 | 57 | 272 | 7.0 | 10.0 | 0.00 | 0.00 | 0.00 | 43 | 1010.8 |
| 20260509180939 | 57 | 256 | 3.0 | 9.0 | 0.00 | 0.00 | 0.00 | 43 | 1010.7 |
| 20260509180434 | 57 | 220 | 6.0 | 10.0 | 0.00 | 0.00 | 0.00 | 41 | 1010.7 |
| 20260509175931 | 57 | 271 | 7.0 | 8.0 | 0.00 | 0.00 | 0.00 | 41 | 1010.7 |
| 20260509175427 | 58 | 243 | 2.0 | 7.0 | 0.00 | 0.00 | 0.00 | 42 | 1010.7 |
| 20260509174924 | 56 | 246 | 5.0 | 10.0 | 0.00 | 0.00 | 0.00 | 43 | 1010.7 |
| 20260509174420 | 56 | 244 | 5.0 | 9.0 | 0.00 | 0.00 | 0.00 | 46 | 1010.8 |
| 20260509173916 | 56 | 251 | 9.0 | 14.0 | 0.00 | 0.00 | 0.00 | 45 | 1010.5 |
| 20260509173415 | 56 | 186 | 3.0 | 7.0 | 0.00 | 0.00 | 0.00 | 46 | 1010.7 |
| 20260509172912 | 56 | 50 | 1.0 | 7.0 | 0.00 | 0.00 | 0.00 | 49 | 1010.5 |
| 20260509172409 | 56 | 246 | 5.0 | 10.0 | 0.00 | 0.00 | 0.00 | 46 | 1010.7 |
| 20260509171905 | 56 | 264 | 6.0 | 9.0 | 0.00 | 0.00 | 0.00 | 47 | 1010.5 |
| 20260509171401 | 54 | 219 | 4.0 | 9.0 | 0.00 | 0.00 | 0.00 | 48 | 1010.4 |
| 20260509170857 | 55 | 139 | 3.0 | 7.0 | 0.00 | 0.00 | 0.00 | 48 | 1010.5 |
| 20260509170353 | 55 | 138 | 7.0 | 16.0 | 0.00 | 0.00 | 0.00 | 47 | 1010.4 |
| 20260509165848 | 55 | 270 | 3.0 | 8.0 | 0.00 | 0.00 | 0.00 | 48 | 1010.3 |
| 20260509165343 | 56 | 205 | 4.0 | 15.0 | 0.00 | 0.00 | 0.00 | 46 | 1010.3 |
| 20260509164839 | 56 | 238 | 2.0 | 11.0 | 0.00 | 0.00 | 0.00 | 46 | 1010.1 |
| 20260509164335 | 56 | 288 | 4.0 | 9.0 | 0.00 | 0.00 | 0.00 | 46 | 1010.3 |
| 20260509163831 | 56 | 309 | 8.0 | 9.0 | 0.00 | 0.00 | 0.00 | 47 | 1010.2 |
| 20260509163328 | 56 | 189 | 7.0 | 11.0 | 0.00 | 0.00 | 0.00 | 47 | 1010.1 |
| 20260509162827 | 56 | 252 | 6.0 | 13.0 | 0.00 | 0.00 | 0.00 | 46 | 1010.0 |
| 20260509162320 | 56 | 212 | 1.0 | 7.0 | 0.00 | 0.00 | 0.00 | 46 | 1010.0 |
| 20260509161817 | 57 | 262 | 7.0 | 16.0 | 0.00 | 0.00 | 0.00 | 45 | 1009.8 |
| 20260509161313 | 56 | 252 | 4.0 | 11.0 | 0.00 | 0.00 | 0.00 | 46 | 1010.0 |
| 20260509160809 | 55 | 299 | 7.0 | 10.0 | 0.00 | 0.00 | 0.00 | 45 | 1009.6 |
| 20260509160305 | 55 | 292 | 6.0 | 8.0 | 0.00 | 0.00 | 0.00 | 45 | 1009.9 |
| 20260509155800 | 55 | 229 | 6.0 | 17.0 | 0.00 | 0.00 | 0.00 | 45 | 1009.8 |
| 20260509155257 | 56 | 232 | 7.0 | 11.0 | 0.00 | 0.00 | 0.00 | 46 | 1009.5 |
| 20260509154753 | 56 | 222 | 2.0 | 14.0 | 0.00 | 0.00 | 0.00 | 48 | 1009.8 |
| 20260509154250 | 55 | 196 | 2.0 | 7.0 | 0.00 | 0.00 | 0.00 | 51 | 1009.5 |
| 20260509153747 | 57 | 322 | 4.0 | 11.0 | 0.00 | 0.00 | 0.00 | 50 | 1009.6 |
| 20260509153243 | 56 | 183 | 6.0 | 10.0 | 0.00 | 0.00 | 0.00 | 51 | 1009.3 |
| 20260509152740 | 55 | 315 | 3.0 | 7.0 | 0.00 | 0.00 | 0.00 | 52 | 1009.4 |
| 20260509152236 | 55 | 231 | 3.0 | 9.0 | 0.00 | 0.00 | 0.00 | 53 | 1009.2 |
| 20260509151733 | 55 | 303 | 6.0 | 9.0 | 0.00 | 0.00 | 0.00 | 54 | 1009.1 |
| 20260509151230 | 55 | 281 | 2.0 | 6.0 | 0.00 | 0.00 | 0.00 | 54 | 1009.3 |
| 20260509150728 | 55 | 353 | 2.0 | 5.0 | 0.00 | 0.00 | 0.00 | 57 | 1009.2 |
| 20260509150226 | 54 | 258 | 4.0 | 7.0 | 0.00 | 0.00 | 0.00 | 57 | 1009.1 |
| 20260509145723 | 53 | 17 | 3.0 | 9.0 | 0.00 | 0.00 | 0.00 | 57 | 1009.0 |
| 20260509145217 | 53 | 304 | 3.0 | 8.0 | 0.00 | 0.00 | 0.00 | 59 | 1008.8 |
| 20260509144714 | 53 | 218 | 8.0 | 13.0 | 0.00 | 0.00 | 0.00 | 59 | 1009.0 |
| 20260509144211 | 52 | 202 | 4.0 | 7.0 | 0.00 | 0.00 | 0.00 | 63 | 1009.1 |
| 20260509143708 | 53 | 173 | 4.0 | 9.0 | 0.00 | 0.00 | 0.00 | 61 | 1008.8 |
| 20260509143205 | 54 | 351 | 3.0 | 13.0 | 0.00 | 0.00 | 0.00 | 62 | 1009.0 |
| 20260509142701 | 54 | 215 | 3.0 | 8.0 | 0.00 | 0.00 | 0.00 | 61 | 1008.8 |
| 20260509142158 | 54 | 240 | 1.0 | 8.0 | 0.00 | 0.00 | 0.00 | 63 | 1008.6 |
| 20260509141653 | 53 | 51 | 1.0 | 2.0 | 0.00 | 0.00 | 0.00 | 65 | 1008.4 |
| 20260509141150 | 52 | 221 | 3.0 | 13.0 | 0.00 | 0.00 | 0.00 | 65 | 1008.4 |
| 20260509140647 | 53 | 259 | 3.0 | 6.0 | 0.00 | 0.00 | 0.00 | 66 | 1008.4 |
| 20260509140145 | 51 | 221 | 3.0 | 6.0 | 0.00 | 0.00 | 0.00 | 70 | 1008.3 |
| 20260509135642 | 52 | 279 | 2.0 | 6.0 | 0.00 | 0.00 | 0.00 | 70 | 1008.2 |
| 20260509135140 | 52 | 269 | 2.0 | 9.0 | 0.00 | 0.00 | 0.00 | 71 | 1008.0 |
| 20260509134636 | 51 | 172 | 4.0 | 8.0 | 0.00 | 0.00 | 0.00 | 73 | 1008.1 |
| 20260509134134 | 50 | 298 | 6.0 | 8.0 | 0.00 | 0.00 | 0.00 | 76 | 1008.2 |
| 20260509133631 | 50 | 225 | 4.0 | 6.0 | 0.00 | 0.00 | 0.00 | 77 | 1008.1 |
| 20260509133128 | 50 | 294 | 1.0 | 9.0 | 0.00 | 0.00 | 0.00 | 79 | 1007.8 |
| 20260509132626 | 50 | 345 | 3.0 | 11.0 | 0.00 | 0.00 | 0.00 | 79 | 1007.9 |
| 20260509132124 | 50 | 247 | 3.0 | 10.0 | 0.00 | 0.00 | 0.00 | 78 | 1007.9 |
| 20260509131620 | 50 | 275 | 2.0 | 8.0 | 0.00 | 0.00 | 0.00 | 77 | 1007.6 |
| 20260509131117 | 51 | 282 | 4.0 | 6.0 | 0.00 | 0.00 | 0.00 | 76 | 1007.6 |
| 20260509130613 | 50 | 272 | 7.0 | 11.0 | 0.00 | 0.00 | 0.00 | 77 | 1007.6 |
| 20260509130110 | 50 | 229 | 7.0 | 8.0 | 0.00 | 0.00 | 0.00 | 78 | 1007.5 |
| 20260509125606 | 51 | 287 | 3.0 | 5.0 | 0.00 | 0.00 | 0.00 | 78 | 1007.3 |
| 20260509125103 | 51 | 247 | 4.0 | 11.0 | 0.00 | 0.00 | 0.00 | 79 | 1007.0 |
| 20260509124559 | 50 | 275 | 6.0 | 9.0 | 0.00 | 0.00 | 0.00 | 80 | 1007.1 |
| 20260509124057 | 50 | 299 | 8.0 | 14.0 | 0.00 | 0.00 | 0.00 | 81 | 1007.2 |
| 20260509123555 | 50 | 236 | 2.0 | 14.0 | 0.00 | 0.00 | 0.00 | 81 | 1007.1 |
| 20260509123051 | 50 | 272 | 7.0 | 11.0 | 0.00 | 0.00 | 0.00 | 82 | 1007.2 |
| 20260509122547 | 50 | 190 | 5.0 | 9.0 | 0.00 | 0.00 | 0.00 | 82 | 1007.0 |
| 20260509122044 | 50 | 222 | 8.0 | 11.0 | 0.00 | 0.00 | 0.00 | 83 | 1006.8 |
| 20260509121540 | 50 | 224 | 4.0 | 8.0 | 0.00 | 0.00 | 0.00 | 83 | 1006.7 |
| 20260509121038 | 50 | 197 | 5.0 | 13.0 | 0.00 | 0.00 | 0.00 | 84 | 1006.7 |
| 20260509120536 | 50 | 238 | 1.0 | 6.0 | 0.00 | 0.00 | 0.00 | 84 | 1006.3 |
| 20260509120034 | 50 | 202 | 4.0 | 7.0 | 0.00 | 0.00 | 0.00 | 83 | 1006.5 |
| 20260509115531 | 50 | 207 | 6.0 | 9.0 | 0.00 | 0.00 | 0.00 | 82 | 1006.5 |
| 20260509115029 | 50 | 214 | 2.0 | 3.0 | 0.00 | 0.00 | 0.00 | 81 | 1006.3 |
| 20260509114527 | 51 | 208 | 4.0 | 6.0 | 0.00 | 0.00 | 0.00 | 80 | 1006.4 |
| 20260509114026 | 51 | 269 | 4.0 | 8.0 | 0.00 | 0.00 | 0.00 | 79 | 1006.2 |
| 20260509113523 | 51 | 171 | 6.0 | 8.0 | 0.00 | 0.00 | 0.00 | 78 | 1006.0 |
| 20260509113021 | 51 | 247 | 1.0 | 5.0 | 0.00 | 0.00 | 0.00 | 75 | 1005.9 |
| 20260509112517 | 50 | 208 | 1.0 | 3.0 | 0.00 | 0.00 | 0.00 | 73 | 1005.8 |
| 20260509112014 | 50 | 236 | 1.0 | 1.0 | 0.00 | 0.00 | 0.00 | 73 | 1005.7 |
| 20260509111511 | 50 | 248 | 1.0 | 1.0 | 0.00 | 0.00 | 0.00 | 72 | 1005.6 |
| 20260509111008 | 50 | 226 | 1.0 | 2.0 | 0.00 | 0.00 | 0.00 | 72 | 1005.4 |
| 20260509110505 | 50 | 241 | 2.0 | 3.0 | 0.00 | 0.00 | 0.00 | 72 | 1005.5 |
| 20260509110002 | 50 | 234 | 1.0 | 2.0 | 0.00 | 0.00 | 0.00 | 72 | 1005.5 |
| 20260509105500 | 50 | 209 | 1.0 | 6.0 | 0.00 | 0.00 | 0.00 | 72 | 1005.3 |
| 20260509104957 | 50 | 148 | 1.0 | 1.0 | 0.00 | 0.00 | 0.00 | 72 | 1005.5 |
| 20260509104454 | 50 | 264 | 1.0 | 3.0 | 0.00 | 0.00 | 0.00 | 70 | 1005.2 |
| 20260509103952 | 51 | 242 | 1.0 | 2.0 | 0.00 | 0.00 | 0.00 | 69 | 1005.4 |
| 20260509103449 | 51 | 244 | 3.0 | 5.0 | 0.00 | 0.00 | 0.00 | 65 | 1005.2 |
| 20260509102947 | 51 | 263 | 2.0 | 2.0 | 0.00 | 0.00 | 0.00 | 63 | 1005.6 |
| 20260509102444 | 52 | 246 | 1.0 | 3.0 | 0.00 | 0.00 | 0.00 | 62 | 1005.7 |
| 20260509101940 | 52 | 255 | 2.0 | 2.0 | 0.00 | 0.00 | 0.00 | 60 | 1005.5 |
| 20260509101436 | 52 | 243 | 0.0 | 1.0 | 0.00 | 0.00 | 0.00 | 59 | 1004.9 |
| 20260509100934 | 52 | 250 | 0.0 | 2.0 | 0.00 | 0.00 | 0.00 | 59 | 1005.0 |
| 20260509100431 | 52 | 28 | 2.0 | 3.0 | 0.00 | 0.00 | 0.00 | 58 | 1004.8 |
| 20260509095928 | 52 | 248 | 2.0 | 3.0 | 0.00 | 0.00 | 0.00 | 57 | 1005.2 |
| 20260509095425 | 52 | 253 | 0.0 | 3.0 | 0.00 | 0.00 | 0.00 | 56 | 1005.2 |
| 20260509094922 | 53 | 220 | 1.0 | 3.0 | 0.00 | 0.00 | 0.00 | 55 | 1005.5 |
| 20260509094418 | 53 | 267 | 1.0 | 2.0 | 0.00 | 0.00 | 0.00 | 55 | 1005.5 |
| 20260509093916 | 53 | 228 | 0.0 | 2.0 | 0.00 | 0.00 | 0.00 | 54 | 1005.4 |
| 20260509093413 | 53 | 246 | 2.0 | 6.0 | 0.00 | 0.00 | 0.00 | 54 | 1005.5 |
| 20260509092912 | 53 | 319 | 4.0 | 6.0 | 0.00 | 0.00 | 0.00 | 53 | 1005.5 |
| 20260509092409 | 53 | 254 | 2.0 | 2.0 | 0.00 | 0.00 | 0.00 | 52 | 1005.5 |
| 20260509091907 | 53 | 196 | 1.0 | 6.0 | 0.00 | 0.00 | 0.00 | 51 | 1005.3 |
| 20260509091404 | 53 | 214 | 1.0 | 3.0 | 0.00 | 0.00 | 0.00 | 51 | 1005.4 |
| 20260509090901 | 53 | 240 | 2.0 | 6.0 | 0.00 | 0.00 | 0.00 | 50 | 1005.4 |
| 20260509090358 | 53 | 289 | 2.0 | 3.0 | 0.00 | 0.00 | 0.00 | 49 | 1005.5 |
| 20260509085856 | 53 | 218 | 4.0 | 6.0 | 0.00 | 0.00 | 0.00 | 49 | 1005.4 |
| 20260509085353 | 53 | 209 | 2.0 | 5.0 | 0.00 | 0.00 | 0.00 | 49 | 1005.3 |
| 20260509084849 | 54 | 255 | 3.0 | 7.0 | 0.00 | 0.00 | 0.00 | 48 | 1005.0 |
| 20260509084346 | 54 | 203 | 1.0 | 7.0 | 0.00 | 0.00 | 0.00 | 47 | 1005.0 |
| 20260509083844 | 53 | 214 | 2.0 | 6.0 | 0.00 | 0.00 | 0.00 | 47 | 1005.0 |
| 20260509083340 | 53 | 227 | 1.0 | 3.0 | 0.00 | 0.00 | 0.00 | 47 | 1004.7 |
| 20260509082837 | 53 | 190 | 1.0 | 2.0 | 0.00 | 0.00 | 0.00 | 47 | 1005.2 |
| 20260509082333 | 53 | 230 | 1.0 | 2.0 | 0.00 | 0.00 | 0.00 | 47 | 1004.8 |
| 20260509081831 | 53 | 256 | 1.0 | 1.0 | 0.00 | 0.00 | 0.00 | 47 | 1004.8 |
| 20260509081328 | 53 | 248 | 1.0 | 2.0 | 0.00 | 0.00 | 0.00 | 45 | 1004.2 |
| 20260509080826 | 53 | 207 | 1.0 | 1.0 | 0.00 | 0.00 | 0.00 | 45 | 1004.4 |
| 20260509080324 | 53 | 220 | 1.0 | 1.0 | 0.00 | 0.00 | 0.00 | 45 | 1004.2 |
| 20260509075822 | 53 | 197 | 0.0 | 1.0 | 0.00 | 0.00 | 0.00 | 45 | 1004.1 |
| 20260509075318 | 53 | 209 | 0.0 | 0.0 | 0.00 | 0.00 | 0.00 | 45 | 1004.1 |
| 20260509074816 | 53 | 209 | 0.0 | 0.0 | 0.00 | 0.00 | 0.00 | 46 | 1003.7 |
| 20260509074313 | 54 | 209 | 0.0 | 0.0 | 0.00 | 0.00 | 0.00 | 44 | 1004.0 |
| 20260509073809 | 54 | 185 | 0.0 | 1.0 | 0.00 | 0.00 | 0.00 | 43 | 1004.5 |
| 20260509073306 | 54 | 207 | 0.0 | 1.0 | 0.00 | 0.00 | 0.00 | 43 | 1004.2 |
| 20260509072803 | 54 | 214 | 0.0 | 0.0 | 0.00 | 0.00 | 0.00 | 43 | 1004.1 |
| 20260509072259 | 54 | 216 | 0.0 | 0.0 | 0.00 | 0.00 | 0.00 | 43 | 1004.4 |
| 20260509071756 | 54 | 207 | 0.0 | 1.0 | 0.00 | 0.00 | 0.00 | 42 | 1004.6 |
| 20260509071253 | 54 | 210 | 0.0 | 1.0 | 0.00 | 0.00 | 0.00 | 43 | 1004.5 |
| 20260509070750 | 54 | 210 | 0.0 | 2.0 | 0.00 | 0.00 | 0.00 | 42 | 1004.5 |
| 20260509070246 | 53 | 202 | 0.0 | 0.0 | 0.00 | 0.00 | 0.00 | 43 | 1004.5 |
| 20260509065743 | 52 | 208 | 0.0 | 0.0 | 0.00 | 0.00 | 0.00 | 44 | 1004.4 |
| 20260509065239 | 51 | 204 | 0.0 | 0.0 | 0.00 | 0.00 | 0.00 | 46 | 1004.6 |
| 20260509064735 | 51 | 212 | 0.0 | 0.0 | 0.00 | 0.00 | 0.00 | 46 | 1004.5 |
| 20260509064233 | 52 | 211 | 0.0 | 0.0 | 0.00 | 0.00 | 0.00 | 44 | 1004.4 |
| 20260509063730 | 51 | 209 | 0.0 | 0.0 | 0.00 | 0.00 | 0.00 | 45 | 1004.7 |
| 20260509063226 | 51 | 209 | 0.0 | 0.0 | 0.00 | 0.00 | 0.00 | 45 | 1004.7 |
| 20260509062724 | 50 | 240 | 0.0 | 0.0 | 0.00 | 0.00 | 0.00 | 49 | 1004.6 |
| 20260509062221 | 51 | 240 | 0.0 | 0.0 | 0.00 | 0.00 | 0.00 | 49 | 1004.8 |
| 20260509061718 | 52 | 240 | 0.0 | 0.0 | 0.00 | 0.00 | 0.00 | 45 | 1004.7 |
| 20260509061216 | 52 | 233 | 0.0 | 0.0 | 0.00 | 0.00 | 0.00 | 45 | 1004.8 |
| 20260509060713 | 52 | 164 | 0.0 | 0.0 | 0.00 | 0.00 | 0.00 | 44 | 1004.7 |
| 20260509060209 | 52 | 177 | 0.0 | 0.0 | 0.00 | 0.00 | 0.00 | 43 | 1004.8 |
| 20260509055705 | 53 | 193 | 0.0 | 0.0 | 0.00 | 0.00 | 0.00 | 43 | 1005.3 |
| 20260509055201 | 53 | 212 | 0.0 | 0.0 | 0.00 | 0.00 | 0.00 | 42 | 1005.2 |
| 20260509054657 | 52 | 208 | 0.0 | 0.0 | 0.00 | 0.00 | 0.00 | 43 | 1005.3 |
| 20260509054155 | 52 | 208 | 0.0 | 0.0 | 0.00 | 0.00 | 0.00 | 43 | 1005.2 |
| 20260509053653 | 53 | 208 | 0.0 | 0.0 | 0.00 | 0.00 | 0.00 | 43 | 1005.2 |
| 20260509053150 | 54 | 208 | 0.0 | 0.0 | 0.00 | 0.00 | 0.00 | 41 | 1005.3 |
| 20260509052648 | 55 | 208 | 0.0 | 0.0 | 0.00 | 0.00 | 0.00 | 40 | 1005.2 |
| 20260509052145 | 55 | 203 | 0.0 | 1.0 | 0.00 | 0.00 | 0.00 | 39 | 1005.3 |
| 20260509051643 | 56 | 211 | 0.0 | 0.0 | 0.00 | 0.00 | 0.00 | 38 | 1005.4 |
| 20260509051140 | 56 | 234 | 1.0 | 1.0 | 0.00 | 0.00 | 0.00 | 37 | 1005.3 |
| 20260509050637 | 56 | 202 | 1.0 | 1.0 | 0.00 | 0.00 | 0.00 | 37 | 1005.3 |
| 20260509050133 | 57 | 224 | 0.0 | 3.0 | 0.00 | 0.00 | 0.00 | 37 | 1005.4 |
| 20260509045631 | 57 | 270 | 1.0 | 2.0 | 0.00 | 0.00 | 0.00 | 36 | 1005.5 |
| 20260509045127 | 57 | 204 | 3.0 | 3.0 | 0.00 | 0.00 | 0.00 | 37 | 1005.5 |
| 20260509044625 | 57 | 221 | 2.0 | 3.0 | 0.00 | 0.00 | 0.00 | 36 | 1005.7 |
| 20260509044122 | 58 | 228 | 1.0 | 2.0 | 0.00 | 0.00 | 0.00 | 36 | 1005.5 |
| 20260509043618 | 58 | 166 | 1.0 | 5.0 | 0.00 | 0.00 | 0.00 | 36 | 1005.4 |
| 20260509043114 | 58 | 220 | 3.0 | 5.0 | 0.00 | 0.00 | 0.00 | 35 | 1005.7 |
| 20260509042611 | 58 | 237 | 3.0 | 11.0 | 0.00 | 0.00 | 0.00 | 36 | 1005.5 |
| 20260509042106 | 58 | 225 | 2.0 | 7.0 | 0.00 | 0.00 | 0.00 | 36 | 1005.8 |
| 20260509041603 | 59 | 249 | 2.0 | 7.0 | 0.00 | 0.00 | 0.00 | 35 | 1005.6 |
| 20260509041101 | 59 | 185 | 3.0 | 6.0 | 0.00 | 0.00 | 0.00 | 35 | 1005.6 |
| 20260509040600 | 59 | 174 | 1.0 | 7.0 | 0.00 | 0.00 | 0.00 | 36 | 1005.6 |
| 20260509040056 | 59 | 249 | 1.0 | 6.0 | 0.00 | 0.00 | 0.00 | 36 | 1005.6 |
| 20260509035553 | 59 | 282 | 2.0 | 8.0 | 0.00 | 0.00 | 0.00 | 35 | 1005.5 |
| 20260509035049 | 60 | 203 | 3.0 | 6.0 | 0.00 | 0.00 | 0.00 | 35 | 1005.7 |
| 20260509034548 | 60 | 241 | 3.0 | 5.0 | 0.00 | 0.00 | 0.00 | 35 | 1005.6 |
| 20260509034044 | 60 | 219 | 5.0 | 8.0 | 0.00 | 0.00 | 0.00 | 34 | 1005.7 |
| 20260509033541 | 60 | 224 | 3.0 | 8.0 | 0.00 | 0.00 | 0.00 | 34 | 1005.6 |
| 20260509033038 | 61 | 39 | 2.0 | 9.0 | 0.00 | 0.00 | 0.00 | 34 | 1005.6 |
| 20260509032536 | 61 | 232 | 2.0 | 13.0 | 0.00 | 0.00 | 0.00 | 34 | 1005.4 |
| 20260509032032 | 61 | 269 | 5.0 | 13.0 | 0.00 | 0.00 | 0.00 | 35 | 1005.4 |
| 20260509031530 | 61 | 227 | 3.0 | 5.0 | 0.00 | 0.00 | 0.00 | 37 | 1005.4 |
| 20260509031027 | 61 | 259 | 7.0 | 8.0 | 0.00 | 0.00 | 0.00 | 36 | 1005.5 |
| 20260509030525 | 62 | 285 | 5.0 | 11.0 | 0.00 | 0.00 | 0.00 | 36 | 1005.3 |
| 20260509030022 | 62 | 271 | 3.0 | 5.0 | 0.00 | 0.00 | 0.00 | 36 | 1005.3 |
| 20260509025518 | 62 | 227 | 6.0 | 11.0 | 0.00 | 0.00 | 0.00 | 35 | 1005.2 |
| 20260509025013 | 63 | 302 | 4.0 | 9.0 | 0.00 | 0.00 | 0.00 | 35 | 1005.0 |
| 20260509024509 | 63 | 249 | 1.0 | 8.0 | 0.00 | 0.00 | 0.00 | 35 | 1005.0 |
| 20260509024006 | 64 | 226 | 8.0 | 10.0 | 0.00 | 0.00 | 0.00 | 34 | 1004.6 |
| 20260509023504 | 64 | 200 | 7.0 | 13.0 | 0.00 | 0.00 | 0.00 | 34 | 1004.5 |
| 20260509023001 | 64 | 240 | 8.0 | 9.0 | 0.00 | 0.00 | 0.00 | 33 | 1004.6 |
| 20260509022457 | 64 | 268 | 3.0 | 7.0 | 0.00 | 0.00 | 0.00 | 33 | 1004.5 |
| 20260509021955 | 64 | 262 | 3.0 | 3.0 | 0.00 | 0.00 | 0.00 | 33 | 1004.4 |
| 20260509021451 | 64 | 189 | 6.0 | 9.0 | 0.00 | 0.00 | 0.00 | 32 | 1004.2 |
| 20260509020948 | 64 | 201 | 2.0 | 7.0 | 0.00 | 0.00 | 0.00 | 31 | 1004.3 |
| 20260509020447 | 65 | 202 | 3.0 | 7.0 | 0.00 | 0.00 | 0.00 | 31 | 1004.0 |
| 20260509015943 | 65 | 192 | 1.0 | 8.0 | 0.00 | 0.00 | 0.00 | 30 | 1004.1 |
| 20260509015443 | 65 | 243 | 7.0 | 10.0 | 0.00 | 0.00 | 0.00 | 30 | 1003.9 |
| 20260509014939 | 65 | 247 | 3.0 | 8.0 | 0.00 | 0.00 | 0.00 | 30 | 1003.9 |
| 20260509014435 | 65 | 236 | 5.0 | 7.0 | 0.00 | 0.00 | 0.00 | 29 | 1003.7 |
| 20260509013931 | 66 | 254 | 4.0 | 6.0 | 0.00 | 0.00 | 0.00 | 30 | 1003.8 |
| 20260509013429 | 66 | 221 | 7.0 | 13.0 | 0.00 | 0.00 | 0.00 | 29 | 1003.8 |
| 20260509012924 | 66 | 252 | 3.0 | 5.0 | 0.00 | 0.00 | 0.00 | 29 | 1003.5 |
| 20260509012421 | 66 | 226 | 4.0 | 13.0 | 0.00 | 0.00 | 0.00 | 29 | 1003.7 |
| 20260509011918 | 66 | 284 | 4.0 | 9.0 | 0.00 | 0.00 | 0.00 | 29 | 1003.6 |
| 20260509011416 | 67 | 228 | 1.0 | 7.0 | 0.00 | 0.00 | 0.00 | 29 | 1003.6 |
| 20260509010914 | 67 | 247 | 6.0 | 11.0 | 0.00 | 0.00 | 0.00 | 29 | 1003.6 |
| 20260509010411 | 67 | 255 | 5.0 | 8.0 | 0.00 | 0.00 | 0.00 | 29 | 1003.5 |
| 20260509005907 | 67 | 223 | 1.0 | 5.0 | 0.00 | 0.00 | 0.00 | 30 | 1003.6 |
| 20260509005406 | 68 | 216 | 10.0 | 15.0 | 0.00 | 0.00 | 0.00 | 29 | 1003.7 |
| 20260509004905 | 68 | 234 | 3.0 | 9.0 | 0.00 | 0.00 | 0.00 | 29 | 1003.4 |
| 20260509004402 | 68 | 173 | 2.0 | 13.0 | 0.00 | 0.00 | 0.00 | 29 | 1003.8 |
| 20260509003900 | 68 | 246 | 5.0 | 11.0 | 0.00 | 0.00 | 0.00 | 29 | 1003.4 |
| 20260509003358 | 69 | 167 | 3.0 | 15.0 | 0.00 | 0.00 | 0.00 | 29 | 1003.7 |
| 20260509002854 | 69 | 231 | 3.0 | 11.0 | 0.00 | 0.00 | 0.00 | 29 | 1003.3 |
| 20260509002352 | 69 | 201 | 2.0 | 8.0 | 0.00 | 0.00 | 0.00 | 30 | 1003.5 |
| 20260509001850 | 69 | 179 | 5.0 | 10.0 | 0.00 | 0.00 | 0.00 | 29 | 1003.3 |
| 20260509001345 | 69 | 226 | 5.0 | 8.0 | 0.00 | 0.00 | 0.00 | 28 | 1003.8 |
| 20260509000843 | 69 | 223 | 6.0 | 13.0 | 0.00 | 0.00 | 0.00 | 29 | 1003.5 |
| 20260509000341 | 69 | 216 | 3.0 | 5.0 | 0.00 | 0.00 | 0.00 | 30 | 1003.5 |
| 20260508235836 | 69 | 232 | 4.0 | 6.0 | 0.00 | 0.00 | 0.00 | 30 | 1003.7 |
| 20260508235334 | 69 | 104 | 5.0 | 15.0 | 0.00 | 0.00 | 0.00 | 29 | 1003.3 |
| 20260508234831 | 69 | 230 | 4.0 | 11.0 | 0.00 | 0.00 | 0.00 | 29 | 1003.5 |
| 20260508234327 | 69 | 235 | 5.0 | 11.0 | 0.00 | 0.00 | 0.00 | 30 | 1003.6 |
| 20260508233826 | 70 | 221 | 7.0 | 17.0 | 0.00 | 0.00 | 0.00 | 29 | 1003.7 |
| 20260508233325 | 69 | 217 | 5.0 | 10.0 | 0.00 | 0.00 | 0.00 | 29 | 1003.6 |
| 20260508232821 | 69 | 250 | 3.0 | 8.0 | 0.00 | 0.00 | 0.00 | 29 | 1003.8 |
| 20260508232317 | 69 | 216 | 3.0 | 7.0 | 0.00 | 0.00 | 0.00 | 30 | 1003.7 |
| 20260508231816 | 69 | 227 | 4.0 | 11.0 | 0.00 | 0.00 | 0.00 | 29 | 1004.0 |
| 20260508231312 | 69 | 257 | 7.0 | 9.0 | 0.00 | 0.00 | 0.00 | 29 | 1003.9 |
| 20260508230809 | 69 | 240 | 3.0 | 7.0 | 0.00 | 0.00 | 0.00 | 30 | 1003.9 |
| 20260508230305 | 69 | 225 | 8.0 | 14.0 | 0.00 | 0.00 | 0.00 | 29 | 1003.9 |
| 20260508225803 | 70 | 163 | 3.0 | 14.0 | 0.00 | 0.00 | 0.00 | 29 | 1003.7 |
| 20260508225259 | 70 | 182 | 9.0 | 15.0 | 0.00 | 0.00 | 0.00 | 28 | 1003.9 |
| 20260508224757 | 70 | 212 | 7.0 | 13.0 | 0.00 | 0.00 | 0.00 | 28 | 1003.9 |
| 20260508224254 | 69 | 165 | 3.0 | 10.0 | 0.00 | 0.00 | 0.00 | 29 | 1003.9 |
| 20260508223752 | 69 | 252 | 1.0 | 8.0 | 0.00 | 0.00 | 0.00 | 30 | 1004.1 |
| 20260508223249 | 70 | 230 | 3.0 | 9.0 | 0.00 | 0.00 | 0.00 | 29 | 1004.1 |
| 20260508222746 | 69 | 217 | 7.0 | 15.0 | 0.00 | 0.00 | 0.00 | 29 | 1004.2 |
| 20260508222244 | 70 | 183 | 5.0 | 10.0 | 0.00 | 0.00 | 0.00 | 28 | 1004.1 |
| 20260508221740 | 71 | 189 | 3.0 | 6.0 | 0.00 | 0.00 | 0.00 | 28 | 1004.2 |
| 20260508221236 | 70 | 213 | 5.0 | 10.0 | 0.00 | 0.00 | 0.00 | 28 | 1004.2 |
| 20260508220732 | 69 | 220 | 1.0 | 2.0 | 0.00 | 0.00 | 0.00 | 30 | 1004.3 |
| 20260508220229 | 68 | 204 | 1.0 | 6.0 | 0.00 | 0.00 | 0.00 | 29 | 1004.4 |
| 20260508215725 | 68 | 246 | 4.0 | 13.0 | 0.00 | 0.00 | 0.00 | 29 | 1004.4 |
| 20260508215222 | 69 | 166 | 5.0 | 13.0 | 0.00 | 0.00 | 0.00 | 29 | 1004.4 |
| 20260508214719 | 70 | 221 | 5.0 | 14.0 | 0.00 | 0.00 | 0.00 | 28 | 1004.4 |
| 20260508214216 | 69 | 233 | 5.0 | 11.0 | 0.00 | 0.00 | 0.00 | 28 | 1004.5 |
| 20260508213713 | 69 | 203 | 11.0 | 14.0 | 0.00 | 0.00 | 0.00 | 28 | 1004.5 |
| 20260508213209 | 69 | 205 | 3.0 | 13.0 | 0.00 | 0.00 | 0.00 | 29 | 1004.8 |
| 20260508212706 | 70 | 231 | 7.0 | 9.0 | 0.00 | 0.00 | 0.00 | 27 | 1004.9 |
| 20260508212202 | 70 | 160 | 9.0 | 10.0 | 0.00 | 0.00 | 0.00 | 27 | 1004.8 |
| 20260508211658 | 70 | 232 | 4.0 | 9.0 | 0.00 | 0.00 | 0.00 | 27 | 1004.7 |
| 20260508211154 | 70 | 191 | 8.0 | 11.0 | 0.00 | 0.00 | 0.00 | 29 | 1004.8 |
| 20260508210651 | 68 | 176 | 7.0 | 10.0 | 0.00 | 0.00 | 0.00 | 28 | 1005.0 |
| 20260508210148 | 68 | 220 | 6.0 | 8.0 | 0.00 | 0.00 | 0.00 | 28 | 1004.8 |
| 20260508205645 | 70 | 193 | 8.0 | 13.0 | 0.00 | 0.00 | 0.00 | 27 | 1005.0 |
| 20260508205142 | 69 | 269 | 3.0 | 13.0 | 0.00 | 0.00 | 0.00 | 28 | 1005.0 |
| 20260508204638 | 71 | 153 | 2.0 | 11.0 | 0.00 | 0.00 | 0.00 | 28 | 1005.4 |
| 20260508204134 | 71 | 223 | 3.0 | 8.0 | 0.00 | 0.00 | 0.00 | 27 | 1005.5 |